"Zeitpunkt";"timestamp";"D0";"V0";"V0_max";"T0";"F0";"G0";"S0";"R0";"M0";"T1";"L0";"L0_nn"
"02.03.2023, 00:00";"1677718801";"23";"2";"5";"17";"60";"9";"0";"0";"0";"0";"0";"10111"
"02.03.2023, 00:10";"1677719401";"31";"2";"7";"17";"60";"10";"0";"0";"0";"1";"0";"10108"
"02.03.2023, 00:20";"1677720001";"47";"3";"6";"17";"61";"11";"0";"0";"0";"0";"0";"10108"
"02.03.2023, 00:30";"1677720601";"41";"3";"6";"15";"61";"11";"0";"0";"0";"-1";"0";"10108"
"02.03.2023, 00:40";"1677721201";"14";"3";"6";"15";"61";"10";"0";"0";"0";"-3";"0";"10108"
"02.03.2023, 00:50";"1677721801";"22";"3";"6";"14";"62";"11";"0";"0";"0";"0";"0";"10108"
"02.03.2023, 01:00";"1677722401";"32";"4";"11";"13";"62";"11";"0";"0";"0";"2";"0";"10108"
"02.03.2023, 01:10";"1677723001";"35";"4";"8";"13";"62";"11";"0";"0";"0";"1";"0";"10106"
"02.03.2023, 01:20";"1677723601";"30";"3";"8";"12";"63";"10";"0";"0";"0";"-1";"0";"10106"
"02.03.2023, 01:30";"1677724202";"34";"2";"8";"11";"63";"10";"0";"0";"0";"-3";"0";"10106"
"02.03.2023, 01:40";"1677724801";"41";"2";"5";"10";"63";"10";"0";"0";"0";"-4";"0";"10106"
"02.03.2023, 01:50";"1677725401";"40";"3";"7";"10";"63";"11";"0";"0";"0";"-1";"0";"10106"
"02.03.2023, 02:00";"1677726001";"40";"4";"9";"9";"63";"11";"0";"0";"0";"-2";"0";"10106"
"02.03.2023, 02:10";"1677726602";"35";"3";"9";"9";"63";"10";"0";"0";"0";"-8";"0";"10104"
"02.03.2023, 02:20";"1677727201";"37";"2";"7";"8";"63";"9";"0";"0";"0";"-7";"0";"10104"
"02.03.2023, 02:30";"1677727801";"359";"1";"7";"8";"64";"7";"0";"0";"0";"-7";"0";"10104"
"02.03.2023, 02:40";"1677728401";"18";"3";"9";"7";"64";"10";"0";"0";"0";"-9";"0";"10104"
"02.03.2023, 02:50";"1677729001";"33";"3";"6";"7";"64";"10";"0";"0";"0";"-5";"0";"10104"
"02.03.2023, 03:00";"1677729601";"39";"3";"7";"6";"64";"11";"0";"0";"0";"-4";"0";"10104"
"02.03.2023, 03:10";"1677730201";"41";"4";"10";"6";"64";"11";"0";"0";"0";"-6";"0";"10104"
"02.03.2023, 03:20";"1677730801";"42";"3";"9";"6";"64";"11";"0";"0";"0";"-5";"0";"10104"
"02.03.2023, 03:30";"1677731401";"37";"3";"7";"4";"64";"10";"0";"0";"0";"-14";"0";"10104"
"02.03.2023, 03:40";"1677732001";"152";"1";"4";"4";"64";"9";"0";"0";"0";"-16";"0";"10104"
"02.03.2023, 03:50";"1677732601";"43";"1";"7";"5";"63";"9";"0";"0";"0";"-6";"0";"10104"
"02.03.2023, 04:00";"1677733201";"61";"3";"9";"6";"63";"11";"0";"0";"0";"-4";"0";"10104"
"02.03.2023, 04:10";"1677733801";"21";"2";"9";"6";"63";"9";"0";"0";"0";"-3";"0";"10104"
"02.03.2023, 04:20";"1677734401";"43";"5";"11";"6";"63";"11";"0";"0";"0";"-5";"0";"10104"
"02.03.2023, 04:30";"1677735001";"40";"4";"9";"6";"63";"11";"0";"0";"0";"-8";"0";"10104"
"02.03.2023, 04:40";"1677735601";"42";"3";"10";"5";"63";"11";"0";"0";"0";"-12";"0";"10104"
"02.03.2023, 04:50";"1677736201";"31";"2";"5";"4";"64";"10";"0";"0";"0";"-12";"0";"10104"
"02.03.2023, 05:00";"1677736801";"41";"1";"5";"4";"64";"10";"0";"0";"0";"-11";"0";"10104"
"02.03.2023, 05:10";"1677737401";"41";"3";"8";"3";"64";"11";"0";"0";"0";"-9";"0";"10101"
"02.03.2023, 05:20";"1677738001";"45";"3";"8";"3";"64";"11";"0";"0";"0";"-13";"0";"10101"
"02.03.2023, 05:30";"1677738601";"49";"2";"6";"2";"64";"19";"0";"0";"0";"-10";"0";"10101"
"02.03.2023, 05:40";"1677739201";"47";"3";"6";"3";"65";"39";"0";"0";"0";"-9";"0";"10101"
"02.03.2023, 05:50";"1677739802";"40";"3";"8";"3";"64";"105";"0";"0";"0";"-7";"0";"10101"
"02.03.2023, 06:00";"1677740401";"46";"3";"7";"4";"64";"655";"6";"0";"0";"-2";"0";"10101"
"02.03.2023, 06:10";"1677741001";"36";"4";"9";"5";"64";"941";"7";"0";"0";"0";"0";"10106"
"02.03.2023, 06:20";"1677741601";"41";"5";"10";"7";"63";"1,682";"10";"0";"0";"1";"0";"10106"
"02.03.2023, 06:30";"1677742201";"45";"4";"9";"9";"63";"1,897";"10";"0";"0";"3";"0";"10106"
"02.03.2023, 06:40";"1677742802";"32";"3";"10";"11";"62";"2,049";"10";"0";"0";"7";"0";"10106"
"02.03.2023, 06:50";"1677743401";"48";"4";"9";"13";"60";"2,173";"10";"0";"0";"11";"0";"10106"
"02.03.2023, 07:00";"1677744001";"47";"5";"10";"15";"60";"2,261";"10";"0";"0";"14";"0";"10106"
"02.03.2023, 07:10";"1677744602";"42";"5";"14";"19";"58";"2,343";"10";"0";"0";"18";"0";"10104"
"02.03.2023, 07:20";"1677745201";"48";"6";"13";"23";"56";"2,453";"10";"0";"0";"23";"0";"10104"
"02.03.2023, 07:30";"1677745801";"47";"6";"13";"28";"54";"2,564";"10";"0";"0";"35";"0";"10104"
"02.03.2023, 07:40";"1677746401";"39";"5";"11";"32";"53";"2,652";"10";"0";"0";"46";"0";"10104"
"02.03.2023, 07:50";"1677747001";"50";"6";"15";"37";"51";"2,728";"10";"0";"0";"54";"0";"10104"
"02.03.2023, 08:00";"1677747601";"41";"6";"14";"40";"50";"2,794";"10";"0";"0";"56";"0";"10104"
"02.03.2023, 08:10";"1677748202";"48";"6";"12";"45";"49";"2,854";"10";"0";"0";"65";"0";"10103"
"02.03.2023, 08:20";"1677748801";"58";"5";"12";"49";"48";"2,897";"10";"0";"0";"68";"0";"10103"
"02.03.2023, 08:30";"1677749401";"39";"6";"13";"52";"46";"2,901";"10";"0";"0";"77";"0";"10103"
"02.03.2023, 08:40";"1677750001";"30";"7";"12";"55";"46";"2,856";"10";"0";"0";"79";"0";"10103"
"02.03.2023, 08:50";"1677750601";"45";"6";"11";"59";"44";"2,815";"10";"0";"0";"83";"0";"10103"
"02.03.2023, 09:00";"1677751201";"44";"5";"12";"61";"44";"2,852";"10";"0";"0";"82";"0";"10103"
"02.03.2023, 09:10";"1677751801";"26";"7";"14";"62";"42";"2,895";"10";"0";"0";"77";"0";"10100"
"02.03.2023, 09:20";"1677752401";"42";"6";"12";"64";"42";"2,923";"10";"0";"0";"78";"0";"10100"
"02.03.2023, 09:30";"1677753002";"40";"6";"12";"68";"41";"2,949";"10";"0";"0";"84";"0";"10100"
"02.03.2023, 09:40";"1677753601";"41";"5";"12";"72";"40";"2,965";"10";"0";"0";"88";"0";"10100"
"02.03.2023, 09:50";"1677754201";"28";"6";"13";"72";"40";"2,972";"10";"0";"0";"86";"0";"10100"
"02.03.2023, 10:00";"1677754801";"46";"7";"14";"74";"40";"2,976";"10";"0";"0";"92";"0";"10100"
"02.03.2023, 10:10";"1677755401";"38";"6";"15";"78";"39";"2,993";"10";"0";"0";"93";"0";"10098"
"02.03.2023, 10:20";"1677756002";"49";"6";"12";"79";"39";"2,989";"10";"0";"0";"91";"0";"10098"
"02.03.2023, 10:30";"1677756601";"40";"7";"13";"80";"39";"2,965";"10";"0";"0";"95";"0";"10098"
"02.03.2023, 10:40";"1677757201";"23";"7";"14";"82";"38";"2,952";"10";"0";"0";"98";"0";"10098"
"02.03.2023, 10:50";"1677757801";"30";"7";"14";"84";"38";"2,952";"10";"0";"0";"95";"0";"10098"
"02.03.2023, 11:00";"1677758401";"27";"8";"14";"86";"39";"2,950";"10";"0";"0";"100";"0";"10098"
"02.03.2023, 11:10";"1677759001";"28";"7";"14";"87";"39";"2,922";"10";"0";"0";"104";"0";"10093"
"02.03.2023, 11:20";"1677759601";"36";"8";"16";"87";"39";"2,902";"10";"0";"0";"100";"0";"10093"
"02.03.2023, 11:30";"1677760201";"27";"8";"14";"90";"38";"2,893";"10";"0";"0";"102";"0";"10093"
"02.03.2023, 11:40";"1677760801";"38";"7";"15";"93";"37";"2,848";"10";"0";"0";"98";"0";"10093"
"02.03.2023, 11:50";"1677761401";"32";"7";"12";"94";"39";"2,741";"10";"0";"0";"108";"0";"10093"
"02.03.2023, 12:00";"1677762001";"17";"7";"14";"96";"37";"2,737";"10";"0";"0";"112";"0";"10093"
"02.03.2023, 12:10";"1677762601";"26";"8";"15";"98";"35";"2,743";"10";"0";"0";"104";"0";"10085"
"02.03.2023, 12:20";"1677763201";"43";"7";"13";"99";"34";"2,770";"10";"0";"0";"87";"0";"10085"
"02.03.2023, 12:30";"1677763801";"39";"7";"17";"98";"34";"2,778";"10";"0";"0";"88";"0";"10085"
"02.03.2023, 12:40";"1677764401";"36";"7";"14";"100";"35";"2,772";"10";"0";"0";"91";"0";"10085"
"02.03.2023, 12:50";"1677765001";"36";"5";"11";"99";"38";"2,743";"10";"0";"0";"88";"0";"10085"
"02.03.2023, 13:00";"1677765601";"23";"6";"14";"100";"37";"2,690";"10";"0";"0";"89";"0";"10085"
"02.03.2023, 13:10";"1677766201";"18";"7";"15";"100";"38";"2,693";"10";"0";"0";"90";"0";"10081"
"02.03.2023, 13:20";"1677766801";"15";"7";"14";"100";"39";"2,671";"10";"0";"0";"90";"0";"10081"
"02.03.2023, 13:30";"1677767401";"30";"7";"15";"100";"40";"2,688";"10";"0";"0";"92";"0";"10081"
"02.03.2023, 13:40";"1677768001";"22";"5";"13";"100";"40";"2,688";"10";"0";"0";"95";"0";"10081"
"02.03.2023, 13:50";"1677768601";"10";"7";"15";"100";"39";"2,643";"10";"0";"0";"91";"0";"10081"
"02.03.2023, 14:00";"1677769201";"32";"7";"14";"99";"41";"2,621";"10";"0";"0";"91";"0";"10081"
"02.03.2023, 14:10";"1677769801";"27";"6";"13";"99";"42";"2,614";"10";"0";"0";"87";"0";"10078"
"02.03.2023, 14:20";"1677770401";"31";"7";"15";"99";"42";"2,579";"10";"0";"0";"85";"0";"10078"
"02.03.2023, 14:30";"1677771001";"30";"7";"13";"98";"43";"2,523";"10";"0";"0";"85";"0";"10078"
"02.03.2023, 14:40";"1677771601";"8";"7";"15";"97";"43";"2,443";"10";"0";"0";"85";"0";"10078"
"02.03.2023, 14:50";"1677772201";"10";"8";"15";"96";"43";"2,328";"10";"0";"0";"84";"0";"10078"
"02.03.2023, 15:00";"1677772801";"27";"8";"15";"96";"44";"2,216";"10";"0";"0";"83";"0";"10078"
"02.03.2023, 15:10";"1677773401";"25";"6";"14";"94";"46";"2,107";"10";"0";"0";"79";"0";"10076"
"02.03.2023, 15:20";"1677774001";"21";"6";"12";"93";"47";"1,979";"10";"0";"0";"79";"0";"10076"
"02.03.2023, 15:30";"1677774601";"6";"6";"17";"91";"47";"1,777";"10";"0";"0";"78";"0";"10076"
"02.03.2023, 15:40";"1677775201";"9";"8";"15";"90";"48";"1,529";"10";"0";"0";"74";"0";"10076"
"02.03.2023, 15:50";"1677775801";"27";"7";"13";"88";"49";"1,243";"10";"0";"0";"76";"0";"10076"
"02.03.2023, 16:00";"1677776401";"30";"7";"14";"87";"49";"912";"10";"0";"0";"72";"0";"10076"
"02.03.2023, 16:10";"1677777001";"30";"6";"11";"85";"49";"487";"7";"0";"0";"74";"0";"10082"
"02.03.2023, 16:20";"1677777601";"36";"6";"14";"83";"50";"94";"0";"0";"0";"69";"0";"10082"
"02.03.2023, 16:30";"1677778201";"27";"5";"9";"82";"51";"20";"0";"0";"0";"64";"0";"10082"
"02.03.2023, 16:40";"1677778801";"19";"5";"8";"79";"53";"11";"0";"0";"0";"58";"0";"10082"
"02.03.2023, 16:50";"1677779401";"18";"5";"9";"77";"55";"10";"0";"0";"0";"57";"0";"10082"
"02.03.2023, 17:00";"1677780001";"7";"5";"10";"75";"59";"9";"0";"0";"0";"58";"0";"10082"
"02.03.2023, 17:10";"1677780601";"18";"6";"11";"71";"61";"9";"0";"0";"0";"54";"0";"10089"
"02.03.2023, 17:20";"1677781202";"19";"6";"13";"68";"62";"10";"0";"0";"0";"55";"0";"10089"
"02.03.2023, 17:30";"1677781801";"26";"7";"15";"65";"62";"10";"0";"0";"0";"51";"0";"10089"
"02.03.2023, 17:40";"1677782401";"27";"7";"15";"62";"63";"11";"0";"0";"0";"47";"0";"10089"
"02.03.2023, 17:50";"1677783001";"20";"6";"14";"60";"65";"10";"0";"0";"0";"46";"0";"10089"
"02.03.2023, 18:00";"1677783601";"25";"6";"13";"57";"66";"10";"0";"0";"0";"44";"0";"10089"
"02.03.2023, 18:10";"1677784201";"20";"6";"13";"54";"68";"11";"0";"0";"0";"41";"0";"10098"
"02.03.2023, 18:20";"1677784801";"21";"7";"13";"51";"69";"10";"0";"0";"0";"36";"0";"10098"
"02.03.2023, 18:30";"1677785401";"17";"6";"12";"48";"71";"10";"0";"0";"0";"36";"0";"10098"
"02.03.2023, 18:40";"1677786001";"28";"6";"13";"46";"71";"11";"0";"0";"0";"31";"0";"10098"
"02.03.2023, 18:50";"1677786601";"16";"5";"11";"44";"72";"10";"0";"0";"0";"30";"0";"10098"
"02.03.2023, 19:00";"1677787201";"12";"7";"13";"41";"73";"10";"0";"0";"0";"28";"0";"10098"
"02.03.2023, 19:10";"1677787801";"26";"5";"12";"39";"74";"10";"0";"0";"0";"28";"0";"10100"
"02.03.2023, 19:20";"1677788401";"24";"7";"14";"36";"75";"11";"0";"0";"0";"24";"0";"10100"
"02.03.2023, 19:30";"1677789001";"26";"7";"15";"34";"76";"11";"0";"0";"0";"21";"0";"10100"
"02.03.2023, 19:40";"1677789601";"28";"6";"12";"32";"76";"11";"0";"0";"0";"21";"0";"10100"
"02.03.2023, 19:50";"1677790201";"26";"6";"14";"31";"77";"11";"0";"0";"0";"19";"0";"10100"
"02.03.2023, 20:00";"1677790801";"21";"6";"12";"29";"78";"10";"0";"0";"0";"16";"0";"10100"
"02.03.2023, 20:10";"1677791401";"27";"5";"12";"27";"79";"10";"0";"0";"0";"16";"0";"10104"
"02.03.2023, 20:20";"1677792001";"25";"6";"14";"26";"79";"10";"0";"0";"0";"16";"0";"10104"
"02.03.2023, 20:30";"1677792601";"22";"5";"11";"24";"80";"10";"0";"0";"0";"15";"0";"10104"
"02.03.2023, 20:40";"1677793201";"25";"5";"12";"23";"80";"10";"0";"0";"0";"12";"0";"10104"
"02.03.2023, 20:50";"1677793801";"31";"5";"11";"22";"81";"11";"0";"0";"0";"10";"0";"10104"
"02.03.2023, 21:00";"1677794401";"28";"5";"12";"20";"82";"11";"0";"0";"0";"9";"0";"10104"
"02.03.2023, 21:10";"1677795001";"25";"5";"13";"18";"82";"10";"0";"0";"0";"9";"0";"10104"
"02.03.2023, 21:20";"1677795601";"34";"5";"13";"18";"83";"11";"0";"0";"0";"9";"0";"10104"
"02.03.2023, 21:30";"1677796201";"27";"5";"11";"16";"83";"11";"0";"0";"0";"10";"0";"10104"
"02.03.2023, 21:40";"1677796801";"37";"7";"13";"16";"84";"10";"0";"0";"0";"11";"0";"10104"
"02.03.2023, 21:50";"1677797401";"33";"6";"14";"15";"84";"10";"0";"0";"0";"10";"0";"10104"
"02.03.2023, 22:00";"1677798001";"32";"6";"13";"15";"84";"11";"0";"0";"0";"11";"0";"10104"
"02.03.2023, 22:10";"1677798601";"33";"5";"11";"15";"84";"11";"0";"0";"0";"10";"0";"10104"
"02.03.2023, 22:20";"1677799201";"34";"4";"11";"15";"84";"10";"0";"0";"0";"11";"0";"10104"
"02.03.2023, 22:30";"1677799801";"28";"5";"12";"15";"84";"11";"0";"0";"0";"12";"0";"10104"
"02.03.2023, 22:40";"1677800401";"15";"4";"10";"16";"84";"9";"0";"0";"0";"13";"0";"10104"
"02.03.2023, 22:50";"1677801001";"39";"3";"8";"16";"84";"10";"0";"0";"0";"13";"0";"10104"
"02.03.2023, 23:00";"1677801601";"49";"3";"7";"16";"84";"11";"0";"0";"0";"13";"0";"10104"
"02.03.2023, 23:10";"1677802201";"36";"4";"10";"16";"84";"10";"0";"0";"0";"13";"0";"10106"
"02.03.2023, 23:20";"1677802802";"34";"4";"9";"16";"84";"11";"0";"0";"0";"14";"0";"10106"
"02.03.2023, 23:30";"1677803401";"40";"4";"9";"16";"84";"11";"0";"0";"0";"14";"0";"10106"
"02.03.2023, 23:40";"1677804001";"32";"2";"7";"17";"83";"10";"0";"0";"0";"14";"0";"10106"
"02.03.2023, 23:50";"1677804601";"27";"4";"8";"17";"83";"10";"0";"0";"0";"15";"0";"10106"
"03.03.2023, 00:00";"1677805201";"31";"2";"5";"17";"83";"11";"0";"0";"0";"15";"0";"10106"
"03.03.2023, 00:10";"1677805801";"22";"4";"11";"17";"83";"10";"0";"0";"0";"14";"0";"10108"
"03.03.2023, 00:20";"1677806401";"28";"5";"12";"17";"83";"9";"0";"0";"0";"13";"0";"10108"
"03.03.2023, 00:30";"1677807001";"45";"7";"13";"16";"83";"11";"0";"0";"0";"13";"0";"10108"
"03.03.2023, 00:40";"1677807601";"37";"5";"9";"16";"84";"11";"0";"0";"0";"14";"0";"10108"
"03.03.2023, 00:50";"1677808201";"19";"4";"9";"16";"84";"10";"0";"0";"0";"13";"0";"10108"
"03.03.2023, 01:00";"1677808801";"9";"5";"10";"16";"84";"9";"0";"0";"0";"13";"0";"10108"
"03.03.2023, 01:10";"1677809401";"24";"5";"11";"15";"84";"10";"0";"0";"0";"12";"0";"10108"
"03.03.2023, 01:20";"1677810001";"40";"5";"9";"15";"84";"11";"0";"0";"0";"13";"0";"10108"
"03.03.2023, 01:30";"1677810601";"36";"4";"8";"16";"84";"11";"0";"0";"0";"13";"0";"10108"
"03.03.2023, 01:40";"1677811201";"23";"3";"8";"15";"83";"10";"0";"0";"0";"13";"0";"10108"
"03.03.2023, 01:50";"1677811801";"7";"6";"13";"14";"84";"8";"0";"0";"0";"10";"0";"10108"
"03.03.2023, 02:00";"1677812401";"34";"7";"14";"13";"84";"11";"0";"0";"0";"10";"0";"10108"
"03.03.2023, 02:10";"1677813001";"18";"6";"12";"13";"85";"10";"0";"0";"0";"10";"0";"10108"
"03.03.2023, 02:20";"1677813601";"13";"6";"12";"13";"85";"11";"0";"0";"0";"10";"0";"10108"
"03.03.2023, 02:30";"1677814201";"8";"6";"12";"12";"84";"8";"0";"0";"0";"8";"0";"10108"
"03.03.2023, 02:40";"1677814801";"36";"7";"12";"12";"85";"11";"0";"0";"0";"9";"0";"10108"
"03.03.2023, 02:50";"1677815401";"35";"4";"10";"12";"85";"10";"0";"0";"0";"10";"0";"10108"
"03.03.2023, 03:00";"1677816002";"21";"3";"8";"12";"85";"11";"0";"0";"0";"10";"0";"10108"
"03.03.2023, 03:10";"1677816601";"2";"5";"11";"12";"85";"8";"0";"0";"0";"9";"0";"10113"
"03.03.2023, 03:20";"1677817201";"4";"5";"10";"11";"85";"8";"0";"0";"0";"9";"0";"10113"
"03.03.2023, 03:30";"1677817801";"13";"5";"9";"11";"85";"9";"0";"0";"0";"8";"0";"10113"
"03.03.2023, 03:40";"1677818402";"12";"5";"11";"10";"85";"8";"0";"0";"0";"7";"0";"10113"
"03.03.2023, 03:50";"1677819001";"30";"5";"10";"9";"85";"10";"0";"0";"0";"5";"0";"10113"
"03.03.2023, 04:00";"1677819601";"39";"7";"12";"8";"85";"11";"0";"0";"0";"6";"0";"10113"
"03.03.2023, 04:10";"1677820201";"40";"5";"13";"8";"85";"11";"0";"0";"0";"6";"0";"10113"
"03.03.2023, 04:20";"1677820801";"42";"5";"10";"8";"85";"11";"0";"0";"0";"6";"0";"10113"
"03.03.2023, 04:30";"1677821401";"49";"5";"11";"8";"85";"10";"0";"0";"0";"6";"0";"10113"
"03.03.2023, 04:40";"1677822001";"45";"5";"10";"8";"85";"11";"0";"0";"0";"6";"0";"10113"
"03.03.2023, 04:50";"1677822601";"42";"4";"10";"8";"85";"11";"0";"0";"0";"6";"0";"10113"
"03.03.2023, 05:00";"1677823201";"16";"4";"8";"9";"84";"9";"0";"0";"0";"7";"0";"10113"
"03.03.2023, 05:10";"1677823801";"7";"5";"12";"10";"84";"8";"0";"0";"0";"7";"0";"10115"
"03.03.2023, 05:20";"1677824401";"12";"5";"12";"10";"83";"9";"0";"0";"0";"7";"0";"10115"
"03.03.2023, 05:30";"1677825001";"6";"7";"12";"10";"83";"9";"0";"0";"0";"8";"0";"10115"
"03.03.2023, 06:10";"1677827401";"41";"6";"11";"11";"82";"11";"0";"0";"0";"10";"0";"10122"
"03.03.2023, 06:20";"1677828001";"42";"5";"10";"11";"82";"13";"0";"0";"0";"10";"0";"10122"
"03.03.2023, 06:30";"1677828601";"31";"6";"11";"11";"81";"19";"0";"0";"0";"11";"0";"10122"
"03.03.2023, 06:40";"1677829201";"41";"5";"10";"12";"81";"18";"0";"0";"0";"13";"0";"10122"
"03.03.2023, 06:50";"1677829801";"47";"5";"11";"13";"81";"20";"0";"0";"0";"13";"0";"10122"
"03.03.2023, 07:00";"1677830401";"47";"6";"11";"14";"80";"21";"0";"0";"0";"15";"0";"10122"
"03.03.2023, 07:10";"1677831001";"49";"5";"10";"14";"80";"20";"0";"0";"0";"16";"0";"10127"
"03.03.2023, 07:20";"1677831601";"50";"4";"9";"15";"80";"24";"0";"0";"0";"17";"0";"10127"
"03.03.2023, 07:30";"1677832201";"49";"4";"8";"16";"80";"27";"0";"0";"0";"20";"0";"10127"
"03.03.2023, 07:40";"1677832802";"15";"4";"8";"16";"80";"27";"0";"0";"0";"20";"0";"10127"
"03.03.2023, 07:50";"1677833401";"359";"4";"8";"17";"80";"23";"0";"0";"0";"19";"0";"10127"
"03.03.2023, 08:00";"1677834001";"354";"6";"10";"16";"80";"23";"0";"0";"0";"19";"0";"10127"
"03.03.2023, 08:10";"1677834601";"12";"5";"10";"17";"80";"34";"0";"0";"0";"20";"0";"10129"
"03.03.2023, 08:20";"1677835201";"2";"4";"9";"17";"80";"34";"0";"0";"0";"20";"0";"10129"
"03.03.2023, 08:30";"1677835801";"356";"6";"11";"18";"80";"33";"0";"0";"0";"26";"0";"10129"
"03.03.2023, 08:40";"1677836401";"5";"4";"9";"18";"80";"39";"0";"0";"0";"23";"0";"10129"
"03.03.2023, 08:50";"1677837001";"22";"4";"8";"19";"79";"44";"0";"0";"0";"24";"0";"10129"
"03.03.2023, 09:00";"1677837601";"34";"4";"8";"20";"79";"52";"0";"0";"0";"29";"0";"10129"
"03.03.2023, 09:10";"1677838201";"18";"2";"7";"21";"78";"58";"0";"0";"0";"28";"0";"10134"
"03.03.2023, 09:20";"1677838801";"5";"5";"9";"21";"77";"50";"0";"0";"0";"31";"0";"10134"
"03.03.2023, 09:30";"1677839401";"359";"5";"10";"22";"77";"61";"0";"0";"0";"31";"0";"10134"
"03.03.2023, 09:40";"1677840001";"21";"4";"8";"23";"77";"74";"0";"0";"0";"36";"0";"10134"
"03.03.2023, 09:50";"1677840601";"12";"4";"8";"24";"76";"77";"0";"0";"0";"37";"0";"10134"
"03.03.2023, 10:00";"1677841201";"40";"3";"8";"26";"75";"104";"0";"0";"0";"42";"0";"10134"
"03.03.2023, 10:10";"1677841801";"38";"3";"8";"27";"75";"111";"0";"0";"0";"44";"0";"10136"
"03.03.2023, 10:20";"1677842401";"48";"3";"9";"28";"74";"88";"0";"0";"0";"46";"0";"10136"
"03.03.2023, 10:30";"1677843001";"36";"3";"8";"29";"74";"96";"0";"0";"0";"48";"0";"10136"
"03.03.2023, 10:40";"1677843601";"38";"3";"7";"30";"73";"112";"0";"0";"0";"45";"0";"10136"
"03.03.2023, 10:50";"1677844201";"55";"4";"9";"30";"73";"103";"0";"0";"0";"45";"0";"10136"
"03.03.2023, 11:00";"1677844801";"75";"3";"8";"32";"73";"110";"0";"0";"0";"51";"0";"10136"
"03.03.2023, 11:10";"1677845401";"42";"3";"7";"33";"73";"117";"0";"0";"0";"53";"0";"10132"
"03.03.2023, 11:20";"1677846001";"24";"4";"9";"32";"73";"117";"0";"0";"0";"49";"0";"10132"
"03.03.2023, 11:30";"1677846601";"32";"4";"8";"33";"71";"128";"0";"0";"0";"56";"0";"10132"
"03.03.2023, 11:40";"1677847201";"55";"4";"8";"36";"71";"294";"1";"0";"0";"57";"0";"10132"
"03.03.2023, 11:50";"1677847801";"31";"3";"9";"35";"72";"278";"0";"0";"0";"52";"0";"10132"
"03.03.2023, 12:00";"1677848401";"26";"4";"9";"36";"71";"231";"0";"0";"0";"53";"0";"10132"
"03.03.2023, 12:10";"1677849001";"1";"4";"9";"37";"71";"203";"0";"0";"0";"58";"0";"10129"
"03.03.2023, 12:20";"1677849601";"350";"4";"9";"38";"71";"213";"0";"0";"0";"55";"0";"10129"
"03.03.2023, 12:30";"1677850201";"20";"4";"8";"38";"71";"508";"8";"0";"0";"51";"0";"10129"
"03.03.2023, 12:40";"1677850801";"19";"3";"7";"40";"70";"1,362";"7";"0";"0";"44";"0";"10129"
"03.03.2023, 12:50";"1677851401";"16";"3";"7";"43";"68";"2,365";"10";"0";"0";"41";"0";"10129"
"03.03.2023, 13:00";"1677852002";"59";"3";"7";"46";"67";"2,182";"10";"0";"0";"44";"0";"10129"
"03.03.2023, 13:10";"1677852601";"63";"1";"5";"47";"67";"2,530";"10";"0";"0";"43";"0";"10124"
"03.03.2023, 13:20";"1677853202";"352";"2";"6";"50";"66";"2,525";"10";"0";"0";"44";"0";"10124"
"03.03.2023, 13:30";"1677853801";"66";"1";"4";"52";"66";"2,608";"10";"0";"0";"47";"0";"10124"
"03.03.2023, 13:40";"1677854401";"7";"2";"5";"52";"66";"2,588";"10";"0";"0";"52";"0";"10124"
"03.03.2023, 13:50";"1677855001";"12";"2";"5";"52";"66";"2,502";"10";"0";"0";"49";"0";"10124"
"03.03.2023, 14:00";"1677855601";"299";"1";"5";"54";"65";"2,538";"10";"0";"0";"51";"0";"10124"
"03.03.2023, 14:10";"1677856201";"1";"3";"7";"54";"65";"2,518";"10";"0";"0";"46";"0";"10119"
"03.03.2023, 14:20";"1677856801";"349";"2";"5";"56";"65";"2,529";"10";"0";"0";"46";"0";"10119"
"03.03.2023, 14:30";"1677857402";"303";"1";"5";"58";"64";"2,434";"10";"0";"0";"46";"0";"10119"
"03.03.2023, 14:40";"1677858001";"357";"1";"5";"59";"64";"2,183";"10";"0";"0";"46";"0";"10119"
"03.03.2023, 14:50";"1677858601";"348";"2";"5";"59";"64";"1,684";"10";"0";"0";"44";"0";"10119"
"03.03.2023, 15:00";"1677859201";"8";"1";"4";"60";"64";"1,546";"10";"0";"0";"42";"0";"10119"
"03.03.2023, 15:10";"1677859801";"348";"1";"6";"60";"64";"1,440";"10";"0";"0";"41";"0";"10114"
"03.03.2023, 15:20";"1677860401";"31";"1";"6";"61";"64";"1,323";"10";"0";"0";"48";"0";"10114"
"03.03.2023, 15:30";"1677861001";"35";"3";"6";"61";"64";"1,122";"10";"0";"0";"45";"0";"10114"
"03.03.2023, 15:40";"1677861601";"2";"3";"6";"62";"64";"1,087";"10";"0";"0";"46";"0";"10114"
"03.03.2023, 15:50";"1677862201";"18";"3";"7";"61";"64";"366";"3";"0";"0";"46";"0";"10114"
"03.03.2023, 16:00";"1677862801";"350";"4";"7";"60";"65";"250";"0";"0";"0";"39";"0";"10114"
"03.03.2023, 16:10";"1677863401";"342";"3";"7";"59";"66";"283";"0";"0";"0";"38";"0";"10119"
"03.03.2023, 16:20";"1677864001";"350";"3";"6";"57";"66";"117";"0";"0";"0";"29";"0";"10119"
"03.03.2023, 16:30";"1677864601";"336";"1";"5";"54";"68";"25";"0";"0";"0";"18";"0";"10119"
"03.03.2023, 16:40";"1677865201";"335";"1";"4";"51";"69";"14";"0";"0";"0";"15";"0";"10119"
"03.03.2023, 16:50";"1677865801";"335";"1";"3";"47";"71";"4";"0";"0";"0";"9";"0";"10119"
"03.03.2023, 17:00";"1677866401";"330";"0";"2";"44";"73";"5";"0";"0";"0";"10";"0";"10119"
"03.03.2023, 17:10";"1677867001";"210";"0";"3";"42";"73";"7";"0";"0";"0";"20";"0";"10125"
"03.03.2023, 17:20";"1677867601";"174";"2";"4";"41";"73";"8";"0";"0";"0";"23";"0";"10125"
"03.03.2023, 17:30";"1677868201";"167";"2";"4";"40";"74";"9";"0";"0";"0";"27";"0";"10125"
"03.03.2023, 17:40";"1677868801";"168";"2";"4";"41";"73";"9";"0";"0";"0";"32";"0";"10125"
"03.03.2023, 17:50";"1677869401";"151";"1";"4";"40";"74";"9";"0";"0";"0";"33";"0";"10125"
"03.03.2023, 18:00";"1677870001";"180";"2";"4";"39";"74";"8";"0";"0";"0";"32";"0";"10125"
"03.03.2023, 18:10";"1677870601";"170";"1";"4";"39";"75";"8";"0";"0";"0";"32";"0";"10127"
"03.03.2023, 18:20";"1677871201";"173";"1";"4";"38";"75";"8";"0";"0";"0";"32";"0";"10127"
"03.03.2023, 18:30";"1677871801";"170";"2";"5";"39";"75";"8";"0";"0";"0";"32";"0";"10127"
"03.03.2023, 18:40";"1677872401";"164";"1";"3";"38";"76";"9";"0";"0";"0";"31";"0";"10127"
"03.03.2023, 18:50";"1677873001";"172";"3";"5";"38";"75";"8";"0";"0";"0";"30";"0";"10127"
"03.03.2023, 19:00";"1677873601";"158";"2";"5";"36";"75";"9";"0";"0";"0";"28";"0";"10127"
"03.03.2023, 19:10";"1677874201";"165";"3";"6";"36";"75";"8";"0";"0";"0";"28";"0";"10127"
"03.03.2023, 19:20";"1677874801";"166";"2";"4";"35";"76";"9";"0";"0";"0";"28";"0";"10127"